AEE995 LTFM-LGAV

Flight info

Callsign AEE995
Flight time N/A
Altitude 36000
Route IVGUS UY226 BIG UN604 OGSIL
Aircraft A320/M-SDE3FGHIRWY/LB1

Departure

Time 2026-05-01 15:24
Airport İstanbul Airport (LTFM)

Arrival

Time N/A
Airport Athens Eleftherios Venizelos International Airport (LGAV)
Time Latitude Longitude Altitude Speed Heading
2026-05-01 14:49 41.26663 28.73745 314 ft 0 kts 270°
2026-05-01 15:14 41.26663 28.73765 313 ft 4 kts 272°
2026-05-01 15:14 41.26656 28.73835 311 ft 4 kts 289°
2026-05-01 15:15 41.26631 28.73875 311 ft 0 kts 359°
2026-05-01 15:18 41.26685 28.73874 313 ft 6 kts 358°
2026-05-01 15:18 41.26733 28.73872 312 ft 8 kts 359°
2026-05-01 15:19 41.26874 28.73746 313 ft 12 kts 270°
2026-05-01 15:19 41.26870 28.73486 313 ft 16 kts 269°
2026-05-01 15:19 41.26869 28.73406 313 ft 5 kts 269°
2026-05-01 15:20 41.26806 28.73331 312 ft 9 kts 176°
2026-05-01 15:20 41.26735 28.73330 313 ft 9 kts 186°
2026-05-01 15:20 41.26719 28.73265 313 ft 9 kts 273°
2026-05-01 15:21 41.26719 28.73162 311 ft 13 kts 269°
2026-05-01 15:21 41.26717 28.73021 310 ft 16 kts 269°
2026-05-01 15:21 41.26717 28.72961 309 ft 0 kts 270°
2026-05-01 15:22 41.26717 28.72908 309 ft 10 kts 270°
2026-05-01 15:22 41.26715 28.72767 309 ft 20 kts 270°
2026-05-01 15:22 41.26712 28.72582 310 ft 19 kts 271°
2026-05-01 15:23 41.26764 28.72515 309 ft 10 kts 355°
2026-05-01 15:23 41.26975 28.72511 303 ft 63 kts 359°
2026-05-01 15:23 41.27615 28.72497 285 ft 117 kts 359°
2026-05-01 15:23 41.28565 28.72504 384 ft 146 kts 11°
2026-05-01 15:24 41.29461 28.72559 1386 ft 115 kts
2026-05-01 15:24 41.30255 28.72574 1948 ft 117 kts
2026-05-01 15:24 41.31123 28.72567 2191 ft 135 kts
2026-05-01 15:24 41.32140 28.72563 2382 ft 158 kts
2026-05-01 15:25 41.33313 28.72562 2657 ft 180 kts
2026-05-01 15:25 41.34651 28.72563 2942 ft 205 kts
2026-05-01 15:25 41.36154 28.72546 3453 ft 224 kts 359°
2026-05-01 15:25 41.37623 28.71730 4226 ft 244 kts 322°
2026-05-01 15:26 41.38518 28.69702 4949 ft 271 kts 286°
2026-05-01 15:26 41.38632 28.67170 5787 ft 281 kts 271°
2026-05-01 15:26 41.38516 28.64516 6658 ft 286 kts 269°
2026-05-01 15:26 41.38351 28.61858 7475 ft 289 kts 269°
2026-05-01 15:27 41.38064 28.59238 8339 ft 292 kts 251°
2026-05-01 15:27 41.37022 28.56941 9317 ft 293 kts 227°
2026-05-01 15:27 41.35317 28.55445 10301 ft 293 kts 201°
2026-05-01 15:28 41.31133 28.55044 11144 ft 326 kts 183°
2026-05-01 15:28 41.28801 28.55105 11455 ft 341 kts 182°
2026-05-01 15:28 41.26435 28.54931 12063 ft 341 kts 195°
2026-05-01 15:29 41.21917 28.53008 13501 ft 342 kts 202°
2026-05-01 15:29 41.19646 28.51985 14129 ft 346 kts 202°
2026-05-01 15:29 41.15463 28.48970 15260 ft 344 kts 229°
2026-05-01 15:30 41.12918 28.43984 16345 ft 346 kts 239°
2026-05-01 15:31 41.07757 28.33021 18680 ft 356 kts 239°
2026-05-01 15:31 41.05111 28.27443 19740 ft 360 kts 239°
2026-05-01 15:32 41.02421 28.21791 20814 ft 364 kts 239°
2026-05-01 15:32 40.99707 28.16099 21789 ft 367 kts 239°
2026-05-01 15:33 40.95566 28.07432 23207 ft 374 kts 238°
2026-05-01 15:34 40.91368 27.98672 24453 ft 381 kts 239°